QPF
0.00 0.00 0.00 0.00 0.00 0.00 0.00 0.00 0.00 0.00 0.00 0.00 0.00 0.00 0.00 0.00 0.00 0.00 0.00 0.00 0.00 0.00 0.00 0.00 0.00 0.00 0.00 0.00 0.00 0.00 0.00 0.00 0.00 0.00 0.00 0.00 0.00 0.00 0.00 0.00 0.00 0.00 0.00 0.00
0.00 0.00 0.00 0.00 0.00 0.00 0.00 0.00 0.00 0.00 0.00 0.00 0.00 0.00 0.00 0.00 0.00 0.00 0.00 0.00 0.00 0.00 0.00 0.00 0.00 0.00 0.00 0.00 0.00 0.00 0.00 0.00 0.00 0.00 0.00 0.00 0.00 0.00 0.00 0.00 0.00 0.00 0.00 0.00
0.00 0.00 0.00 0.00 0.00 0.00 0.00 0.00 0.00 0.00 0.00 0.00 0.00 0.00 0.00 0.00 0.00 0.00 0.00 0.00 0.00 0.00 0.00 0.00 0.00 0.00 0.00 0.00 0.00 0.00 0.00 0.00 0.00 0.00 0.00 0.00 0.00 0.00 0.00 0.00 0.00 0.00 0.00 0.00
0.00 0.00 0.00 0.00 0.00 0.00 0.00 0.00 0.00 0.00 0.00 0.00 0.00 0.00 0.00 0.00 0.00 0.00 0.00 0.00 0.00 0.00 0.00 0.00 0.00 0.00 0.00 0.00 0.00 0.00 0.00 0.00 0.00 0.00 0.00 0.00 0.00 0.00 0.00 0.00 0.00 0.00 0.00 0.00
0.00 0.00 0.00 0.00 0.00 0.00 0.00 0.00 0.00 0.00 0.00 0.00 0.00 0.00 0.00 0.00 0.00 0.00 0.00 0.00 0.00 0.00 0.00 0.00 0.00 0.00 0.00 0.00 0.00 0.00 0.00 0.00 0.00 0.00 0.00 0.00 0.00 0.00 0.00 0.00 0.00 0.00 0.00 0.00
0.00 0.00 0.00 0.00 0.00 0.00 0.00 0.00 0.00 0.00 0.00 0.00 0.00 0.00 0.00 0.00 0.00 0.00 0.00 0.00 0.00 0.00 0.00 0.00 0.00 0.00 0.00 0.00 0.00 0.00 0.00 0.00 0.00 0.00 0.00 0.00 0.00 0.00 0.00 0.00 0.00 0.00 0.00 0.00
0.00 0.00 0.00 0.00 0.00 0.00 0.00 0.00 0.00 0.00 0.00 0.00 0.00 0.00 0.00 0.00 0.00 0.00 0.00 0.00 0.00 0.00 0.00 0.00 0.00 0.00 0.00 0.00 0.00 0.00 0.00 0.00 0.00 0.00 0.00 0.00 0.00 0.00 0.00 0.00 0.00 0.00 0.00 0.00
0.00 0.00 0.00 0.00 0.00 0.00 0.00 0.00 0.00 0.00 0.00 0.00 0.00 0.00 0.00 0.00 0.00 0.00 0.00 0.00 0.00 0.00 0.00 0.00 0.00 0.00 0.00 0.00 0.00 0.00 0.00 0.00 0.00 0.00 0.00 0.00 0.00 0.00 0.00 0.00 0.00 0.00 0.00 0.00
0.00 0.00 0.00 0.00 0.00 0.00 0.00 0.00 0.00 0.00 0.00 0.00 0.00 0.00 0.00 0.00 0.00 0.00 0.00 0.00 0.00 0.00 0.00 0.00 0.00 0.00 0.00 0.00 0.00 0.00 0.00 0.00 0.00 0.00 0.00 0.00 0.00 0.00 0.00 0.00 0.00 0.00 0.00 0.00
0.00 0.00 0.00 0.00 0.00 0.00 0.00 0.00 0.00 0.00 0.00 0.00 0.00 0.00 0.00 0.00 0.00 0.00 0.00 0.00 0.00 0.00 0.00 0.00 0.00 0.00 0.00 0.00 0.00 0.00 0.00 0.00 0.00 0.00 0.00 0.00 0.00 0.00 0.00 0.00 0.00 0.00 0.00 0.00
0.00 0.00 0.00 0.00 0.00 0.00 0.00 0.00 0.00 0.00 0.00 0.00 0.00 0.00 0.00 0.00 0.00 0.00 0.00 0.00 0.00 0.00 0.00 0.00 0.00 0.00 0.00 0.00 0.00 0.00 0.00 0.00 0.00 0.00 0.00 0.00 0.00 0.00 0.00 0.00 0.00 0.00 0.00 0.00
0.00 0.00 0.00 0.00 0.00 0.00 0.00 0.00 0.00 0.00 0.00 0.00 0.00 0.00 0.00 0.00 0.00 0.00 0.00 0.00 0.00 0.00 0.00 0.00 0.00 0.00 0.00 0.00 0.00 0.00 0.00 0.00 0.00 0.00 0.00 0.00 0.00 0.00 0.00 0.00 0.00 0.00 0.00 0.00
0.00 0.00 0.00 0.00 0.00 0.00 0.00 0.00 0.00 0.00 0.00 0.00 0.00 0.00 0.00 0.00 0.00 0.00 0.00 0.00 0.00 0.00 0.00 0.00 0.00 0.00 0.00 0.00 0.00 0.00 0.00 0.00 0.00 0.00 0.00 0.00 0.00 0.00 0.00 0.00 0.00 0.00 0.00 0.00
0.00 0.00 0.00 0.00 0.00 0.00 0.00 0.00 0.00 0.00 0.00 0.00 0.00 0.00 0.00 0.00 0.00 0.00 0.00 0.00 0.00 0.00 0.00 0.00 0.00 0.00 0.00 0.00 0.00 0.00 0.00 0.00 0.00 0.00 0.00 0.00 0.00 0.00 0.00 0.00 0.00 0.00 0.00 0.00
0.00 0.00 0.00 0.00 0.00 0.00 0.00 0.00 0.00 0.00 0.00 0.00 0.00 0.00 0.00 0.00 0.00 0.00 0.00 0.00 0.00 0.00 0.00 0.00 0.00 0.00 0.00 0.00 0.00 0.00 0.00 0.00 0.00 0.00 0.00 0.00 0.00 0.00 0.00 0.00 0.00 0.00 0.00 0.00
0.00 0.00 0.00 0.00 0.00 0.00 0.00 0.00 0.00 0.00 0.00 0.00 0.00 0.00 0.00 0.00 0.00 0.00 0.00 0.00 0.00 0.00 0.00 0.00 0.00 0.00 0.00 0.00 0.00 0.00 0.00 0.00 0.00 0.00 0.00 0.00 0.00 0.00 0.00 0.00 0.00 0.00 0.00 0.00
0.00 0.00 0.00 0.00 0.00 0.00 0.00 0.00 0.00 0.00 0.00 0.00 0.00 0.00 0.00 0.00 0.00 0.00 0.00 0.00 0.00 0.00 0.00 0.00 0.00 0.00 0.00 0.00 0.00 0.00 0.00 0.00 0.00 0.00 0.00 0.00 0.00 0.00 0.00 0.00 0.00 0.00 0.00 0.00
0.00 0.00 0.00 0.00 0.00 0.00 0.00 0.00 0.00 0.00 0.00 0.00 0.00 0.00 0.00 0.00 0.00 0.00 0.00 0.00 0.00 0.00 0.00 0.00 0.00 0.00 0.00 0.00 0.00 0.00 0.00 0.00 0.00 0.00 0.00 0.00 0.00 0.00 0.00 0.00 0.00 0.00 0.00 0.00
0.00 0.00 0.00 0.00 0.00 0.00 0.00 0.00 0.00 0.00 0.00 0.00 0.00 0.00 0.00 0.00 0.00 0.00 0.00 0.00 0.00 0.00 0.00 0.00 0.00 0.00 0.00 0.00 0.00 0.00 0.00 0.00 0.00 0.00 0.00 0.00 0.00 0.00 0.00 0.00 0.00 0.00 0.00 0.00
0.00 0.00 0.00 0.00 0.00 0.00 0.00 0.00 0.00 0.00 0.00 0.00 0.00 0.00 0.00 0.00 0.00 0.00 0.00 0.00 0.00 0.00 0.00 0.00 0.00 0.00 0.00 0.00 0.00 0.00 0.00 0.00 0.00 0.00 0.00 0.00 0.00 0.00 0.00 0.00 0.00 0.00 0.00 0.00
0.00 0.00 0.00 0.00 0.00 0.00 0.00 0.00 0.00 0.00 0.00 0.00 0.00 0.00 0.00 0.00 0.00 0.00 0.00 0.00 0.00 0.00 0.00 0.00 0.00 0.00 0.00 0.00 0.00 0.00 0.00 0.00 0.00 0.00 0.00 0.00 0.00 0.00 0.00 0.00 0.00 0.00 0.00 0.00
0.00 0.00 0.00 0.00 0.00 0.00 0.00 0.00 0.00 0.00 0.00 0.00 0.00 0.00 0.00 0.00 0.00 0.00 0.00 0.00 0.00 0.00 0.00 0.00 0.00 0.00 0.00 0.00 0.00 0.00 0.00 0.00 0.00 0.00 0.00 0.00 0.00 0.00 0.00 0.00 0.00 0.00 0.00 0.00
0.00 0.00 0.00 0.00 0.00 0.00 0.00 0.00 0.00 0.00 0.00 0.00 0.00 0.00 0.00 0.00 0.00 0.00 0.00 0.00 0.00 0.00 0.00 0.00 0.00 0.00 0.00 0.00 0.00 0.00 0.00 0.00 0.00 0.00 0.00 0.00 0.00 0.00 0.00 0.00 0.00 0.00 0.00 0.00
0.00 0.00 0.00 0.00 0.00 0.00 0.00 0.00 0.00 0.00 0.00 0.00 0.00 0.00 0.00 0.00 0.00 0.00 0.00 0.00 0.00 0.00 0.00 0.00 0.00 0.00 0.00 0.00 0.00 0.00 0.00 0.00 0.00 0.00 0.00 0.00 0.00 0.00 0.00 0.00 0.00 0.00 0.00 0.00
0.00 0.00 0.00 0.00 0.00 0.00 0.00 0.00 0.00 0.00 0.00 0.00 0.00 0.00 0.00 0.00 0.00 0.00 0.00 0.00 0.00 0.00 0.00 0.00 0.00 0.00 0.00 0.00 0.00 0.00 0.00 0.00 0.00 0.00 0.00 0.00 0.00 0.00 0.00 0.00 0.00 0.00 0.00 0.00
0.00 0.00 0.00 0.00 0.00 0.00 0.00 0.00 0.00 0.00 0.00 0.00 0.00 0.00 0.00 0.00 0.00 0.00 0.00 0.00 0.00 0.00 0.00 0.00 0.00 0.00 0.00 0.00 0.00 0.00 0.00 0.00 0.00 0.00 0.00 0.00 0.00 0.00 0.00 0.00 0.00 0.00 0.00 0.00
0.00 0.00 0.00 0.00 0.00 0.00 0.00 0.00 0.00 0.00 0.00 0.00 0.00 0.00 0.00 0.00 0.00 0.00 0.00 0.00 0.00 0.00 0.00 0.00 0.00 0.00 0.00 0.00 0.00 0.00 0.00 0.00 0.00 0.00 0.00 0.00 0.00 0.00 0.00 0.00 0.00 0.00 0.00 0.00
MSLP
1011.95 1012.12 1012.24 1012.34 1012.42 1012.48 1012.50 1012.46 1012.35 1012.17 1011.91 1011.61 1011.30 1011.02 1010.81 1010.70 1010.69 1010.80 1010.99 1011.23 1011.49 1011.72 1011.90 1012.02 1012.07 1012.07 1012.06 1012.05 1012.07 1012.13 1012.24 1012.38 1012.53 1012.66 1012.77 1012.82 1012.81 1012.75 1012.65 1012.52 1012.39 1012.26 1012.15 1012.05
1011.81 1011.90 1011.93 1011.91 1011.86 1011.80 1011.73 1011.63 1011.50 1011.35 1011.18 1010.98 1010.80 1010.64 1010.54 1010.50 1010.53 1010.64 1010.79 1010.98 1011.17 1011.34 1011.47 1011.55 1011.60 1011.62 1011.64 1011.67 1011.74 1011.85 1012.00 1012.18 1012.36 1012.53 1012.66 1012.74 1012.77 1012.73 1012.65 1012.54 1012.40 1012.27 1012.14 1012.02
1011.64 1011.65 1011.59 1011.47 1011.32 1011.16 1011.01 1010.87 1010.74 1010.62 1010.52 1010.42 1010.35 1010.30 1010.28 1010.30 1010.36 1010.45 1010.57 1010.69 1010.81 1010.90 1010.98 1011.03 1011.07 1011.10 1011.15 1011.23 1011.35 1011.51 1011.70 1011.91 1012.12 1012.32 1012.47 1012.57 1012.62 1012.60 1012.54 1012.45 1012.32 1012.19 1012.05 1011.91
1011.40 1011.35 1011.20 1011.00 1010.77 1010.55 1010.34 1010.17 1010.05 1009.96 1009.92 1009.91 1009.93 1009.96 1010.02 1010.09 1010.16 1010.24 1010.31 1010.37 1010.42 1010.45 1010.48 1010.50 1010.53 1010.57 1010.65 1010.77 1010.92 1011.12 1011.34 1011.57 1011.80 1012.00 1012.16 1012.27 1012.33 1012.34 1012.29 1012.22 1012.11 1011.99 1011.86 1011.72
1011.06 1010.93 1010.72 1010.46 1010.17 1009.90 1009.66 1009.48 1009.37 1009.32 1009.33 1009.40 1009.50 1009.62 1009.74 1009.85 1009.94 1010.01 1010.05 1010.07 1010.07 1010.05 1010.03 1010.03 1010.05 1010.10 1010.20 1010.34 1010.51 1010.72 1010.95 1011.18 1011.40 1011.59 1011.74 1011.85 1011.90 1011.92 1011.89 1011.84 1011.76 1011.66 1011.56 1011.44
1010.57 1010.37 1010.10 1009.79 1009.47 1009.17 1008.93 1008.75 1008.67 1008.66 1008.74 1008.88 1009.05 1009.25 1009.43 1009.59 1009.72 1009.80 1009.83 1009.83 1009.80 1009.76 1009.72 1009.70 1009.71 1009.76 1009.86 1010.00 1010.18 1010.38 1010.58 1010.79 1010.97 1011.12 1011.24 1011.32 1011.36 1011.37 1011.36 1011.33 1011.28 1011.22 1011.15 1011.08
1009.90 1009.64 1009.33 1008.99 1008.66 1008.36 1008.13 1007.99 1007.94 1007.99 1008.13 1008.34 1008.60 1008.87 1009.13 1009.35 1009.53 1009.64 1009.70 1009.70 1009.67 1009.62 1009.58 1009.55 1009.56 1009.61 1009.70 1009.82 1009.97 1010.13 1010.30 1010.44 1010.56 1010.65 1010.71 1010.74 1010.75 1010.74 1010.72 1010.70 1010.68 1010.67 1010.65 1010.63
1009.07 1008.77 1008.43 1008.09 1007.77 1007.50 1007.31 1007.22 1007.23 1007.35 1007.56 1007.85 1008.19 1008.54 1008.88 1009.18 1009.42 1009.58 1009.68 1009.72 1009.72 1009.69 1009.65 1009.63 1009.63 1009.67 1009.73 1009.82 1009.93 1010.03 1010.12 1010.18 1010.22 1010.22 1010.20 1010.16 1010.11 1010.06 1010.02 1010.00 1010.00 1010.02 1010.05 1010.08
1008.10 1007.79 1007.46 1007.15 1006.87 1006.66 1006.54 1006.51 1006.60 1006.80 1007.09 1007.46 1007.88 1008.31 1008.73 1009.11 1009.42 1009.66 1009.81 1009.90 1009.94 1009.94 1009.93 1009.91 1009.91 1009.92 1009.96 1010.00 1010.04 1010.07 1010.07 1010.04 1009.98 1009.88 1009.76 1009.63 1009.50 1009.39 1009.30 1009.26 1009.25 1009.29 1009.35 1009.44
1007.07 1006.78 1006.50 1006.25 1006.05 1005.93 1005.90 1005.96 1006.13 1006.41 1006.78 1007.23 1007.72 1008.23 1008.72 1009.17 1009.55 1009.86 1010.08 1010.23 1010.31 1010.35 1010.36 1010.35 1010.35 1010.34 1010.34 1010.33 1010.30 1010.25 1010.16 1010.03 1009.86 1009.65 1009.42 1009.19 1008.97 1008.77 1008.62 1008.53 1008.49 1008.51 1008.59 1008.70
1006.02 1005.79 1005.60 1005.46 1005.38 1005.37 1005.44 1005.61 1005.88 1006.24 1006.68 1007.19 1007.74 1008.31 1008.86 1009.36 1009.80 1010.17 1010.45 1010.65 1010.78 1010.86 1010.89 1010.90 1010.88 1010.86 1010.81 1010.75 1010.66 1010.53 1010.35 1010.13 1009.86 1009.55 1009.21 1008.87 1008.55 1008.26 1008.02 1007.86 1007.76 1007.74 1007.80 1007.91
1004.99 1004.87 1004.81 1004.81 1004.87 1005.00 1005.20 1005.48 1005.84 1006.27 1006.77 1007.33 1007.92 1008.52 1009.10 1009.64 1010.12 1010.54 1010.86 1011.11 1011.29 1011.39 1011.45 1011.47 1011.45 1011.40 1011.33 1011.22 1011.07 1010.88 1010.63 1010.33 1009.97 1009.57 1009.14 1008.71 1008.29 1007.90 1007.58 1007.32 1007.14 1007.06 1007.06 1007.14
1004.00 1004.02 1004.11 1004.28 1004.50 1004.78 1005.11 1005.50 1005.95 1006.45 1006.99 1007.57 1008.18 1008.79 1009.38 1009.94 1010.45 1010.89 1011.26 1011.54 1011.75 1011.89 1011.98 1012.00 1011.99 1011.93 1011.84 1011.69 1011.50 1011.26 1010.96 1010.60 1010.18 1009.72 1009.22 1008.71 1008.21 1007.74 1007.32 1006.97 1006.71 1006.54 1006.47 1006.48
1003.02 1003.21 1003.47 1003.81 1004.20 1004.64 1005.10 1005.60 1006.12 1006.67 1007.24 1007.84 1008.44 1009.05 1009.64 1010.20 1010.72 1011.18 1011.58 1011.90 1012.14 1012.32 1012.43 1012.48 1012.47 1012.41 1012.30 1012.14 1011.92 1011.65 1011.32 1010.92 1010.47 1009.97 1009.43 1008.88 1008.32 1007.79 1007.30 1006.88 1006.53 1006.28 1006.12 1006.05
1002.07 1002.41 1002.85 1003.36 1003.91 1004.49 1005.08 1005.67 1006.26 1006.85 1007.44 1008.04 1008.63 1009.23 1009.81 1010.37 1010.90 1011.38 1011.80 1012.16 1012.44 1012.65 1012.79 1012.87 1012.88 1012.82 1012.71 1012.54 1012.31 1012.03 1011.68 1011.28 1010.82 1010.31 1009.76 1009.19 1008.62 1008.06 1007.53 1007.06 1006.65 1006.33 1006.09 1005.93
1001.16 1001.64 1002.22 1002.88 1003.58 1004.29 1004.98 1005.66 1006.31 1006.93 1007.54 1008.13 1008.72 1009.30 1009.87 1010.43 1010.97 1011.48 1011.93 1012.33 1012.65 1012.91 1013.08 1013.19 1013.22 1013.18 1013.07 1012.90 1012.66 1012.38 1012.03 1011.63 1011.19 1010.70 1010.18 1009.63 1009.07 1008.52 1007.99 1007.50 1007.07 1006.69 1006.39 1006.16
1000.35 1000.92 1001.62 1002.40 1003.21 1004.02 1004.81 1005.55 1006.25 1006.91 1007.53 1008.12 1008.70 1009.28 1009.85 1010.42 1010.98 1011.51 1012.00 1012.43 1012.80 1013.10 1013.31 1013.45 1013.50 1013.47 1013.37 1013.20 1012.97 1012.68 1012.35 1011.97 1011.55 1011.10 1010.62 1010.13 1009.62 1009.12 1008.63 1008.16 1007.72 1007.33 1006.99 1006.70
999.72 1000.36 1001.13 1001.99 1002.88 1003.76 1004.61 1005.41 1006.14 1006.82 1007.45 1008.06 1008.64 1009.22 1009.80 1010.38 1010.96 1011.51 1012.04 1012.51 1012.92 1013.25 1013.50 1013.65 1013.72 1013.70 1013.60 1013.43 1013.20 1012.92 1012.60 1012.25 1011.87 1011.47 1011.06 1010.63 1010.20 1009.76 1009.34 1008.92 1008.52 1008.14 1007.79 1007.46
999.40 1000.06 1000.86 1001.75 1002.68 1003.60 1004.48 1005.30 1006.06 1006.75 1007.40 1008.01 1008.60 1009.19 1009.78 1010.37 1010.96 1011.54 1012.09 1012.59 1013.02 1013.38 1013.64 1013.81 1013.88 1013.86 1013.75 1013.58 1013.35 1013.07 1012.77 1012.44 1012.10 1011.76 1011.41 1011.06 1010.71 1010.36 1010.01 1009.66 1009.32 1008.97 1008.63 1008.29
999.47 1000.10 1000.89 1001.77 1002.69 1003.61 1004.49 1005.32 1006.08 1006.78 1007.44 1008.05 1008.65 1009.24 1009.83 1010.43 1011.02 1011.61 1012.16 1012.66 1013.10 1013.46 1013.72 1013.89 1013.95 1013.92 1013.81 1013.63 1013.39 1013.12 1012.83 1012.53 1012.22 1011.93 1011.64 1011.36 1011.09 1010.82 1010.55 1010.27 1009.98 1009.68 1009.37 1009.04
999.95 1000.53 1001.26 1002.09 1002.97 1003.85 1004.71 1005.52 1006.26 1006.96 1007.60 1008.22 1008.81 1009.39 1009.98 1010.56 1011.14 1011.70 1012.24 1012.72 1013.14 1013.48 1013.72 1013.87 1013.92 1013.87 1013.75 1013.56 1013.33 1013.06 1012.78 1012.50 1012.22 1011.96 1011.73 1011.50 1011.29 1011.08 1010.87 1010.66 1010.42 1010.16 1009.87 1009.56
1000.78 1001.29 1001.94 1002.69 1003.49 1004.31 1005.11 1005.87 1006.59 1007.26 1007.89 1008.48 1009.06 1009.62 1010.18 1010.73 1011.28 1011.80 1012.29 1012.73 1013.11 1013.41 1013.62 1013.74 1013.76 1013.70 1013.58 1013.38 1013.15 1012.90 1012.63 1012.37 1012.12 1011.88 1011.67 1011.48 1011.31 1011.14 1010.96 1010.78 1010.57 1010.34 1010.08 1009.78
1001.85 1002.27 1002.82 1003.46 1004.17 1004.90 1005.62 1006.33 1006.99 1007.63 1008.22 1008.79 1009.34 1009.87 1010.39 1010.90 1011.39 1011.86 1012.29 1012.66 1012.98 1013.23 1013.39 1013.48 1013.49 1013.42 1013.29 1013.11 1012.89 1012.65 1012.41 1012.16 1011.93 1011.72 1011.52 1011.34 1011.17 1011.00 1010.83 1010.66 1010.46 1010.23 1009.98 1009.69
1002.99 1003.30 1003.75 1004.28 1004.87 1005.50 1006.14 1006.77 1007.38 1007.97 1008.53 1009.07 1009.58 1010.08 1010.55 1011.01 1011.43 1011.83 1012.19 1012.50 1012.75 1012.94 1013.06 1013.12 1013.11 1013.05 1012.93 1012.77 1012.58 1012.37 1012.15 1011.93 1011.71 1011.50 1011.30 1011.11 1010.92 1010.73 1010.54 1010.34 1010.12 1009.88 1009.62 1009.33
1004.02 1004.24 1004.57 1004.99 1005.47 1006.00 1006.55 1007.11 1007.66 1008.20 1008.73 1009.24 1009.72 1010.18 1010.61 1011.01 1011.38 1011.71 1012.00 1012.24 1012.43 1012.57 1012.66 1012.69 1012.68 1012.63 1012.54 1012.41 1012.26 1012.09 1011.90 1011.70 1011.50 1011.29 1011.07 1010.85 1010.62 1010.39 1010.15 1009.90 1009.64 1009.37 1009.09 1008.80
1004.80 1004.94 1005.18 1005.49 1005.87 1006.30 1006.78 1007.27 1007.78 1008.29 1008.78 1009.27 1009.73 1010.16 1010.56 1010.91 1011.23 1011.50 1011.73 1011.91 1012.06 1012.16 1012.22 1012.25 1012.24 1012.21 1012.16 1012.07 1011.97 1011.84 1011.69 1011.51 1011.31 1011.09 1010.85 1010.59 1010.31 1010.02 1009.72 1009.41 1009.10 1008.78 1008.47 1008.16
1005.28 1005.36 1005.52 1005.75 1006.04 1006.40 1006.81 1007.26 1007.73 1008.21 1008.70 1009.17 1009.62 1010.03 1010.41 1010.74 1011.02 1011.25 1011.44 1011.58 1011.68 1011.76 1011.81 1011.84 1011.85 1011.85 1011.83 1011.79 1011.73 1011.64 1011.52 1011.36 1011.16 1010.93 1010.65 1010.34 1010.01 1009.65 1009.29 1008.92 1008.55 1008.19 1007.84 1007.51
Thickness
5756 5759 5755 5752 5748 5744 5738 5740 5737 5746 5747 5755 5761 5760 5761 5761 5760 5757 5755 5752 5748 5743 5740 5737 5734 5731 5729 5725 5722 5717 5711 5706 5702 5699 5695 5691 5687 5683 5679 5675 5672 5669 5664 5661
5749 5759 5755 5750 5754 5753 5748 5748 5748 5748 5750 5767 5768 5767 5764 5763 5761 5757 5755 5754 5751 5747 5743 5740 5736 5732 5730 5726 5723 5718 5712 5707 5704 5699 5695 5690 5686 5682 5678 5674 5671 5668 5663 5659
5738 5755 5750 5739 5758 5759 5757 5758 5754 5746 5755 5765 5762 5760 5759 5759 5759 5757 5757 5755 5752 5748 5745 5741 5739 5736 5732 5728 5723 5718 5713 5709 5705 5700 5694 5689 5686 5681 5677 5674 5671 5667 5663 5659
5737 5743 5722 5760 5788 5782 5767 5765 5766 5764 5765 5765 5763 5762 5762 5762 5758 5757 5757 5754 5752 5748 5745 5743 5742 5739 5734 5730 5724 5719 5715 5710 5705 5700 5694 5690 5685 5681 5678 5675 5671 5667 5663 5660
5735 5731 5743 5763 5778 5778 5765 5761 5773 5767 5767 5768 5768 5764 5759 5763 5761 5758 5756 5754 5752 5749 5747 5744 5742 5739 5735 5730 5726 5720 5715 5710 5706 5701 5695 5690 5685 5682 5679 5676 5672 5668 5664 5661
5735 5726 5728 5765 5784 5788 5771 5752 5778 5774 5768 5767 5762 5745 5746 5758 5758 5756 5754 5752 5749 5748 5745 5742 5739 5737 5730 5725 5722 5717 5714 5711 5707 5702 5696 5691 5687 5684 5681 5677 5673 5669 5666 5662
5724 5727 5747 5771 5782 5776 5742 5753 5781 5778 5772 5767 5759 5753 5754 5757 5754 5752 5749 5747 5746 5743 5739 5737 5735 5731 5725 5721 5718 5716 5714 5710 5705 5701 5696 5692 5689 5685 5681 5677 5673 5669 5666 5664
5727 5721 5737 5771 5771 5760 5763 5780 5781 5776 5773 5767 5762 5758 5755 5751 5747 5746 5743 5741 5740 5736 5734 5733 5730 5725 5720 5716 5715 5714 5710 5706 5702 5699 5696 5693 5689 5685 5681 5676 5672 5669 5666 5665
5748 5748 5766 5775 5773 5773 5777 5775 5774 5771 5768 5764 5758 5753 5749 5745 5741 5739 5738 5735 5734 5731 5728 5726 5724 5719 5713 5711 5710 5708 5704 5701 5699 5697 5695 5692 5688 5684 5680 5677 5672 5669 5667 5664
5757 5759 5765 5770 5770 5769 5770 5771 5770 5767 5763 5760 5753 5749 5744 5739 5735 5732 5730 5728 5726 5723 5719 5716 5715 5712 5707 5704 5702 5700 5697 5695 5695 5693 5692 5692 5689 5686 5681 5676 5672 5670 5667 5664
5751 5760 5763 5763 5765 5765 5764 5765 5762 5760 5758 5754 5749 5743 5738 5732 5727 5724 5722 5720 5717 5712 5708 5706 5704 5700 5696 5694 5692 5689 5688 5688 5687 5687 5686 5685 5685 5683 5681 5679 5675 5670 5668 5665
5746 5762 5760 5761 5765 5765 5759 5756 5754 5751 5747 5746 5743 5736 5731 5724 5719 5716 5713 5710 5706 5702 5698 5695 5691 5687 5683 5681 5679 5677 5676 5677 5676 5676 5676 5677 5677 5678 5680 5678 5677 5673 5670 5665
5767 5771 5770 5773 5769 5763 5755 5752 5750 5745 5740 5735 5733 5728 5722 5715 5711 5707 5703 5698 5694 5690 5686 5683 5678 5673 5670 5669 5667 5666 5665 5666 5665 5665 5665 5666 5667 5668 5669 5672 5672 5669 5666 5663
5771 5765 5755 5754 5753 5752 5750 5747 5743 5738 5733 5728 5722 5718 5712 5706 5701 5696 5691 5688 5684 5679 5675 5670 5665 5661 5658 5657 5656 5655 5655 5655 5654 5654 5655 5657 5658 5659 5660 5661 5662 5662 5663 5661
5760 5758 5752 5749 5745 5742 5740 5736 5729 5724 5721 5716 5712 5707 5701 5695 5689 5684 5681 5678 5673 5667 5662 5658 5653 5649 5648 5646 5644 5644 5645 5644 5644 5645 5647 5648 5649 5651 5652 5653 5654 5655 5656 5656
5748 5746 5744 5739 5735 5732 5728 5724 5718 5714 5710 5705 5699 5695 5691 5684 5678 5674 5670 5666 5659 5653 5649 5645 5640 5638 5637 5634 5633 5633 5634 5636 5635 5636 5637 5637 5638 5638 5639 5640 5641 5642 5642 5642
5734 5731 5729 5727 5725 5723 5719 5716 5712 5707 5701 5694 5689 5684 5678 5672 5666 5662 5658 5654 5648 5642 5637 5632 5628 5628 5627 5623 5622 5622 5623 5624 5625 5625 5624 5624 5623 5624 5625 5625 5626 5626 5627 5628
5739 5736 5731 5726 5719 5714 5709 5706 5703 5697 5690 5684 5678 5672 5666 5661 5655 5650 5646 5642 5636 5630 5625 5621 5617 5616 5615 5612 5610 5611 5612 5612 5612 5612 5611 5610 5610 5611 5610 5610 5610 5610 5611 5613
5733 5729 5724 5719 5713 5705 5700 5695 5690 5684 5677 5671 5664 5658 5654 5649 5643 5638 5634 5628 5623 5617 5613 5609 5607 5605 5604 5602 5599 5600 5600 5600 5600 5599 5598 5597 5597 5596 5596 5595 5595 5594 5594 5594
5716 5714 5709 5704 5699 5692 5686 5680 5674 5667 5661 5656 5650 5644 5639 5635 5630 5625 5620 5615 5609 5604 5601 5597 5596 5593 5592 5589 5587 5588 5589 5588 5587 5586 5585 5584 5583 5582 5581 5580 5579 5579 5578 5577
5691 5690 5687 5682 5677 5672 5667 5661 5655 5649 5645 5641 5635 5630 5625 5621 5617 5612 5607 5601 5597 5591 5589 5586 5584 5581 5579 5575 5576 5577 5577 5577 5576 5574 5573 5571 5570 5568 5567 5566 5564 5563 5561 5560
5663 5663 5660 5657 5653 5648 5644 5641 5636 5631 5627 5624 5620 5615 5610 5606 5602 5598 5594 5589 5585 5578 5577 5576 5573 5569 5567 5565 5565 5565 5566 5566 5564 5562 5560 5558 5556 5554 5553 5551 5549 5547 5545 5542
5637 5637 5635 5633 5630 5627 5624 5621 5617 5613 5610 5607 5603 5600 5596 5593 5589 5585 5581 5578 5574 5568 5565 5564 5561 5559 5557 5555 5554 5554 5555 5554 5552 5550 5547 5544 5542 5540 5538 5536 5534 5531 5528 5525
5614 5614 5613 5612 5610 5607 5604 5602 5599 5596 5593 5590 5588 5585 5582 5577 5575 5573 5570 5565 5561 5557 5555 5553 5551 5549 5547 5545 5544 5544 5543 5542 5539 5537 5534 5531 5528 5525 5523 5520 5517 5514 5511 5508
5594 5594 5594 5593 5591 5589 5588 5585 5582 5579 5577 5574 5572 5570 5568 5566 5563 5561 5558 5555 5551 5547 5545 5545 5543 5541 5538 5536 5535 5534 5532 5529 5526 5523 5520 5517 5514 5511 5508 5505 5501 5497 5493 5489
5577 5577 5576 5576 5576 5574 5573 5570 5567 5564 5563 5561 5559 5558 5556 5554 5551 5548 5545 5544 5542 5540 5537 5535 5534 5532 5530 5528 5525 5522 5520 5517 5514 5510 5507 5503 5500 5496 5492 5488 5484 5479 5475 5470
5560 5560 5559 5560 5560 5560 5560 5558 5556 5554 5553 5551 5549 5548 5547 5545 5542 5539 5537 5535 5532 5530 5528 5526 5524 5522 5519 5516 5513 5510 5507 5504 5500 5497 5493 5488 5484 5480 5475 5471 5466 5461 5456 5452